Date String (YYYY-MM-DD hh:mm:ss) UTC,Instrument flags,absolute air pressure of the measurement (hPa),sample flow rate (lpm),inlet stack bypass flow (lpm),air temperature of the measurement (°C),ambient temperature measured by the external sensor (°C),aerosol sample conditioner tube jacket temperature (°C),OPC LED temperature (°C),internal box temperature (°C),relative humidity of the measurement (%),span deviation,mass concentration of particles derived from Lorenz-Mie calculation of OPC scattering (μg/m³),mass concentration of particles derived from Lorenz-Mie calculation of OPC scattering (μg/m³),mass concentration of particles derived from Lorenz-Mie calculation of OPC scattering (μg/m³)
DateTimeUTC,F1_M11,P_M11,Q1_M11,Q2_M11,T1_M11,T2_M11,T3_M11,T4_M11,T5_M11,U1_M11,ZSPAN_M11,X0_M11,X2_M11,X1_M11
2024-05-19 19:00:00,SystemResetWarning,0822.9,5.00,000.00,024.1,023.4,000.0,032.2,026.0,021.5,0000.0,0010.17,0003.80,0003.03
2024-05-19 19:01:00,SystemResetWarning,0823.1,5.01,000.00,024.2,023.6,000.0,032.2,026.1,022.7,0000.0,0010.14,0003.83,0003.06
2024-05-19 19:02:00,SystemResetWarning,0822.9,5.00,000.00,024.3,023.8,000.0,032.2,026.2,022.8,0000.0,0010.27,0003.90,0003.10
2024-05-19 19:03:00,SystemResetWarning,0823.1,4.99,000.00,024.4,024.0,000.0,032.3,026.3,023.0,0000.0,0009.86,0003.94,0003.10
2024-05-19 19:04:00,SystemResetWarning,0822.8,5.00,000.00,024.5,024.0,000.0,032.3,026.4,020.7,0000.0,0009.85,0003.95,0003.11
2024-05-19 19:05:00,SystemResetWarning,0823.0,4.99,000.00,024.3,022.7,000.0,032.4,025.6,018.5,0000.0,0009.80,0003.94,0003.12
2024-05-19 19:06:00,SystemResetWarning,0822.8,5.00,000.00,024.0,021.3,000.0,032.5,024.8,018.5,0000.0,0010.18,0003.88,0003.11
2024-05-19 19:07:00,SystemResetWarning,0823.0,5.01,000.00,023.9,021.6,000.0,032.4,024.9,017.2,0000.0,0010.09,0003.87,0003.09
2024-05-19 19:08:00,SystemResetWarning,0822.7,4.99,000.00,023.8,022.0,000.0,032.3,025.1,016.9,0000.0,0009.70,0003.89,0003.10
2024-05-19 19:09:00,SystemResetWarning,0822.8,4.99,000.00,023.9,022.3,000.0,032.3,025.3,015.7,0000.0,0009.06,0003.89,0003.09
2024-05-19 19:10:00,SystemResetWarning,0822.6,5.01,000.00,023.9,022.7,000.0,032.2,025.5,016.1,0000.0,0009.75,0003.90,0003.07
2024-05-19 19:11:00,SystemResetWarning,0822.8,5.01,000.00,024.0,023.0,000.0,032.2,025.7,015.1,0000.0,0010.26,0003.81,0003.03
2024-05-19 19:12:00,SystemResetWarning,0822.8,5.01,000.00,024.1,023.2,000.0,032.2,025.8,015.3,0000.0,0010.23,0003.78,0003.00
2024-05-19 19:13:00,SystemResetWarning,0822.9,4.99,000.00,024.1,023.5,000.0,032.2,026.0,015.1,0000.0,0010.09,0003.69,0002.95
2024-05-19 19:14:00,SystemResetWarning,0822.6,5.00,000.00,024.2,023.7,000.0,032.2,026.1,015.8,0000.0,0010.02,0003.62,0002.93
2024-05-19 19:15:00,SystemResetWarning,0822.4,5.01,000.00,024.3,023.8,000.0,032.3,026.2,015.4,0000.0,0011.01,0003.60,0002.89
2024-05-19 19:16:00,SystemResetWarning,0822.5,4.98,000.00,024.2,022.8,000.0,032.4,025.6,015.6,0000.0,0011.48,0003.64,0002.91
2024-05-19 19:17:00,SystemResetWarning,0822.4,5.00,000.00,023.9,021.1,000.0,032.4,024.7,015.6,0000.0,0010.90,0003.67,0002.92
2024-05-19 19:18:00,SystemResetWarning,0822.4,5.02,000.00,023.7,021.2,000.0,032.4,024.7,015.7,0000.0,0010.42,0003.68,0002.94
2024-05-19 19:19:00,SystemResetWarning,0822.3,4.98,000.00,023.7,021.7,000.0,032.3,024.9,015.7,0000.0,0010.71,0003.68,0002.93
2024-05-19 19:20:00,SystemResetWarning,0822.3,4.99,000.00,023.7,022.0,000.0,032.2,025.1,015.7,0000.0,0012.09,0003.68,0002.94
2024-05-19 19:21:00,SystemResetWarning,0822.4,5.01,000.00,023.7,022.4,000.0,032.1,025.3,015.8,0000.0,0011.95,0003.66,0002.93
2024-05-19 19:22:00,SystemResetWarning,0822.3,5.01,000.00,023.8,022.7,000.0,032.1,025.5,015.9,0000.0,0011.21,0003.66,0002.93
2024-05-19 19:23:00,SystemResetWarning,0822.2,5.00,000.00,023.9,023.0,000.0,032.1,025.6,016.4,0000.0,0011.23,0003.70,0002.91
2024-05-19 19:24:00,SystemResetWarning,0822.2,5.00,000.00,024.0,023.3,000.0,032.1,025.8,015.5,0000.0,0011.34,0003.75,0002.91
2024-05-19 19:25:00,SystemResetWarning,0822.2,5.00,000.00,024.1,023.5,000.0,032.1,025.9,016.2,0000.0,0012.33,0003.78,0002.90
2024-05-19 19:26:00,SystemResetWarning,0822.4,5.00,000.00,024.2,023.7,000.0,032.1,026.1,016.2,0000.0,0011.84,0003.76,0002.90
2024-05-19 19:27:00,SystemResetWarning,0822.4,5.00,000.00,024.2,023.9,000.0,032.1,026.2,015.7,0000.0,0011.18,0003.69,0002.88
2024-05-19 19:28:00,SystemResetWarning,0822.4,4.99,000.00,024.3,023.4,000.0,032.2,025.9,016.5,0000.0,0011.52,0003.71,0002.87
2024-05-19 19:29:00,SystemResetWarning,0822.3,4.99,000.00,024.0,021.5,000.0,032.3,024.8,016.0,0000.0,0011.64,0003.74,0002.86
2024-05-19 19:30:00,SystemResetWarning,0822.2,5.02,000.00,023.7,021.2,000.0,032.3,024.7,015.7,0000.0,0011.57,0003.75,0002.86
2024-05-19 19:31:00,SystemResetWarning,0822.3,4.98,000.00,023.7,021.7,000.0,032.2,024.9,016.1,0000.0,0010.48,0003.74,0002.86
2024-05-19 19:32:00,SystemResetWarning,0822.4,5.00,000.00,023.7,022.1,000.0,032.1,025.1,016.8,0000.0,0010.00,0003.75,0002.88
2024-05-19 19:33:00,SystemResetWarning,0822.4,5.01,000.00,023.8,022.4,000.0,032.1,025.3,016.6,0000.0,0010.57,0003.76,0002.88
2024-05-19 19:34:00,SystemResetWarning,0822.4,5.00,000.00,023.8,022.8,000.0,032.1,025.5,016.6,0000.0,0010.63,0003.75,0002.91
2024-05-19 19:35:00,SystemResetWarning,0822.4,5.00,000.00,023.9,023.1,000.0,032.1,025.6,016.6,0000.0,0010.81,0003.70,0002.91
2024-05-19 19:36:00,SystemResetWarning,0822.4,5.00,000.00,024.0,023.3,000.0,032.1,025.8,016.4,0000.0,0010.35,0003.68,0002.93
2024-05-19 19:37:00,SystemResetWarning,0822.4,5.00,000.00,024.1,023.5,000.0,032.1,026.0,015.8,0000.0,0009.39,0003.70,0002.94
2024-05-19 19:38:00,SystemResetWarning,0822.5,5.00,000.00,024.2,023.7,000.0,032.1,026.1,015.9,0000.0,0009.57,0003.69,0002.93
2024-05-19 19:39:00,SystemResetWarning,0822.4,5.00,000.00,024.3,023.9,000.0,032.1,026.2,016.8,0000.0,0009.18,0003.68,0002.94
2024-05-19 19:40:00,SystemResetWarning,0822.5,4.99,000.00,024.4,024.0,000.0,032.2,026.3,016.6,0000.0,0009.16,0003.67,0002.94
2024-05-19 19:41:00,SystemResetWarning,0822.4,5.00,000.00,024.4,023.9,000.0,032.3,026.2,015.6,0000.0,0009.04,0003.63,0002.94
2024-05-19 19:42:00,SystemResetWarning,0822.4,5.00,000.00,024.2,022.0,000.0,032.4,025.3,014.6,0000.0,0009.00,0003.63,0002.93
2024-05-19 19:43:00,SystemResetWarning,0822.4,5.02,000.00,023.9,021.0,000.0,032.4,024.7,014.3,0000.0,0010.35,0003.64,0002.92
2024-05-19 19:44:00,SystemResetWarning,0822.5,5.00,000.00,023.8,021.5,000.0,032.4,024.9,015.5,0000.0,0010.31,0003.67,0002.91
2024-05-19 19:45:00,SystemResetWarning,0822.5,4.99,000.00,023.8,021.9,000.0,032.2,025.1,015.9,0000.0,0010.99,0003.68,0002.90
2024-05-19 19:46:00,SystemResetWarning,0822.5,5.00,000.00,023.8,022.3,000.0,032.2,025.3,016.8,0000.0,0011.32,0003.70,0002.91
2024-05-19 19:47:00,SystemResetWarning,0822.6,5.01,000.00,023.9,022.7,000.0,032.1,025.5,015.7,0000.0,0011.72,0003.74,0002.90
2024-05-19 19:48:00,SystemResetWarning,0822.6,5.00,000.00,024.0,023.0,000.0,032.1,025.6,015.9,0000.0,0012.20,0003.72,0002.88
2024-05-19 19:49:00,SystemResetWarning,0822.7,5.00,000.00,024.0,023.3,000.0,032.1,025.8,015.3,0000.0,0012.81,0003.76,0002.89
2024-05-19 19:50:00,SystemResetWarning,0822.5,5.00,000.00,024.1,023.5,000.0,032.1,026.0,015.4,0000.0,0013.13,0003.78,0002.89
2024-05-19 19:51:00,SystemResetWarning,0822.6,5.00,000.00,024.2,023.7,000.0,032.2,026.1,015.4,0000.0,0013.25,0003.75,0002.88
2024-05-19 19:52:00,SystemResetWarning,0822.7,5.01,000.00,024.3,023.9,000.0,032.2,026.2,015.7,0000.0,0013.36,0003.78,0002.87
2024-05-19 19:53:00,SystemResetWarning,0822.6,4.99,000.00,024.3,023.5,000.0,032.3,026.0,015.6,0000.0,0013.59,0003.87,0002.88
2024-05-19 19:54:00,SystemResetWarning,0822.9,5.00,000.00,024.0,021.6,000.0,032.4,024.9,015.0,0000.0,0012.27,0003.87,0002.90
2024-05-19 19:55:00,SystemResetWarning,0822.5,5.02,000.00,023.7,021.2,000.0,032.4,024.7,015.3,0000.0,0013.08,0003.87,0002.91
2024-05-19 19:56:00,SystemResetWarning,0822.5,4.99,000.00,023.7,021.7,000.0,032.3,025.0,015.4,0000.0,0013.83,0003.91,0002.93
2024-05-19 19:57:00,SystemResetWarning,0822.7,5.00,000.00,023.8,022.1,000.0,032.2,025.1,015.4,0000.0,0014.20,0003.90,0002.92
2024-05-19 19:58:00,SystemResetWarning,0822.6,5.00,000.00,023.8,022.5,000.0,032.1,025.3,016.2,0000.0,0014.81,0003.85,0002.94
2024-05-19 19:59:00,SystemResetWarning,0822.4,5.01,000.00,023.9,022.8,000.0,032.1,025.5,016.2,0000.0,0014.31,0003.87,0002.95
